sat.trackr.live / text

‹ back to catalog

STARLINK-30335

NORAD 57710 · 2023-129N

PAYLOAD ACTIVE UNKNOWN

§ Identity

Operator
Country
US
Launch date
2023-08-27
Launch site
AFETR
Launch vehicle
Mass (kg)
RCS (m²)

Purposes: comms

External: N2YO · Heavens-Above · Gunter

§ Orbital elements

Epoch: 2026-09-20T22:18:53.833536Z

Period
94.27 min
Inclination
43.0046°
Eccentricity
0.0001768
Mean motion
15.27573566 rev/d
Perigee alt
481.9 km
Apogee alt
484.3 km
Semi-major
6,861.2 km
B*
2.8324e-5
RAAN
95.1511°
Arg perigee
258.7318°
Mean anomaly
101.3335°
Rev number
17,054

§ Raw data

STARLINK-303351 57710U 23129N   26263.92978974  .00000517  00000+0  28324-4 0  99962 57710  43.0046  95.1511 0001768 258.7318 101.3335 15.27573566170547

JSON: /api/v1/satellites/57710 · /tle

For live sub-satellite position, see the globe view (requires WebGL).

§ Visibility from observer

Set your observer location to see the next 7 days of passes ≥ 10°. The values pass through the URL so the page stays shareable.

No JS? Fill the form by hand. The geolocation button needs JavaScript.